TimeCDT,TemperatureF,Dew PointF,Humidity,Sea Level PressureIn,VisibilityMPH,Wind Direction,Wind SpeedMPH,Gust SpeedMPH,PrecipitationIn,Events,Conditions,WindDirDegrees,DateUTC
12:53 AM,82.9,69.1,63,29.81,10.0,South,8.1,-,N/A,,Clear,190,2012-09-08 05:53:00
1:53 AM,82.0,70.0,67,29.81,10.0,SSW,6.9,-,N/A,,Clear,200,2012-09-08 06:53:00
3:53 AM,81.0,71.1,72,29.87,10.0,NW,4.6,-,N/A,,Unknown,320,2012-09-08 08:53:00
4:53 AM,81.0,69.1,67,29.88,10.0,Calm,Calm,-,N/A,,Mostly Cloudy,0,2012-09-08 09:53:00
5:53 AM,79.0,70.0,74,29.90,10.0,NNW,4.6,-,N/A,,Clear,330,2012-09-08 10:53:00
6:53 AM,80.1,66.9,64,29.92,10.0,North,15.0,-,N/A,,Partly Cloudy,360,2012-09-08 11:53:00
7:53 AM,79.0,64.9,62,29.94,10.0,North,13.8,-,N/A,,Clear,360,2012-09-08 12:53:00
8:53 AM,78.1,64.9,64,29.97,10.0,North,18.4,25.3,N/A,,Clear,350,2012-09-08 13:53:00
9:53 AM,78.1,64.0,62,29.99,10.0,North,18.4,-,N/A,,Clear,350,2012-09-08 14:53:00
10:53 AM,82.0,64.0,54,30.01,10.0,North,15.0,23.0,N/A,,Clear,360,2012-09-08 15:53:00
11:53 AM,82.9,64.0,53,30.01,10.0,NNW,17.3,26.5,N/A,,Clear,340,2012-09-08 16:53:00
12:53 PM,84.0,64.0,51,30.01,10.0,North,17.3,25.3,N/A,,Partly Cloudy,10,2012-09-08 17:53:00
1:53 PM,84.0,64.0,51,29.99,10.0,North,11.5,24.2,N/A,,Partly Cloudy,10,2012-09-08 18:53:00
2:53 PM,84.9,63.0,48,29.97,10.0,North,12.7,25.3,N/A,,Clear,10,2012-09-08 19:53:00
3:53 PM,86.0,63.0,46,29.96,10.0,North,15.0,-,N/A,,Partly Cloudy,10,2012-09-08 20:53:00
4:53 PM,88.0,62.1,42,29.95,10.0,North,8.1,19.6,N/A,,Partly Cloudy,360,2012-09-08 21:53:00
5:53 PM,87.1,61.0,41,29.95,10.0,North,13.8,-,N/A,,Partly Cloudy,360,2012-09-08 22:53:00
6:53 PM,84.9,59.0,41,29.95,10.0,North,12.7,-,N/A,,Clear,10,2012-09-08 23:53:00
7:53 PM,82.9,57.9,42,29.97,10.0,NNE,6.9,-,N/A,,Clear,20,2012-09-09 00:53:00
8:53 PM,80.1,53.1,39,30.00,10.0,North,5.8,-,N/A,,Clear,10,2012-09-09 01:53:00
9:53 PM,75.9,51.1,42,30.02,10.0,North,6.9,-,N/A,,Clear,360,2012-09-09 02:53:00
10:53 PM,77.0,48.0,36,30.03,10.0,North,8.1,-,N/A,,Clear,360,2012-09-09 03:53:00
11:53 PM,73.0,46.9,39,30.03,10.0,North,6.9,-,N/A,,Clear,360,2012-09-09 04:53:00